savonsanomat.fi alexa rank chart, savonsanomat.fi alexa rank daily changes

savonsanomat.fi alexa rank chart, savonsanomat.fi alexa rank daily changes

savonsanomat.fi
Actual rank:
93 313

RANK HISTORY

Date Rank Diff
2017/10/21 93 313 +508
2017/10/20 92 805 -553
2017/10/19 93 358 -949
2017/10/18 94 307 -578
2017/10/17 94 885 +34
2017/10/16 94 851 -1 293
2017/10/14 96 144 -1 058
2017/10/13 97 202 +2 596
2017/10/12 94 606 -841
2017/10/11 95 447 +568
2017/10/10 94 879 +1 244
2017/10/09 93 635 +129
2017/10/08 93 506 -1 663
2017/10/07 95 169 +370
2017/10/06 94 799 -1 322
2017/10/05 96 121 -2 041
2017/10/04 98 162 -1 789
2017/10/03 99 951 +1 045
2017/10/02 98 906 -1 030
2017/10/01 99 936 +1 845
2017/09/30 98 091 -842
2017/09/29 98 933 +977
2017/09/28 97 956 +407
2017/09/27 97 549 +1 686
2017/09/26 95 863 -2 989
2017/09/25 98 852 +1 043
2017/09/24 97 809 -1 677
2017/09/23 99 486 +1 374
2017/09/22 98 112 +559
2017/09/20 97 553 +1 906
2017/09/19 95 647 -459
2017/09/18 96 106 -184
2017/09/17 96 290 +1 307
2017/09/16 94 983 +1 661
2017/09/15 93 322 +1 567
2017/09/14 91 755 +74
2017/09/13 91 681 -3 193
2017/09/12 94 874 -59
2017/09/11 94 933 +1 562
2017/09/10 93 371 -1 593
2017/09/09 94 964 -547
2017/09/08 95 511 +1 255
2017/09/07 94 256 +2
2017/09/06 94 254 -701
2017/09/05 94 955 +2 613
2017/09/04 92 342 +218
2017/09/03 92 124 +153
2017/09/02 91 971 +766
2017/09/01 91 205 +650
2017/08/31 90 555 -416
2017/08/30 90 971 +278
2017/08/29 90 693 -935
2017/08/28 91 628 +29
2017/08/27 91 599 +261
2017/08/26 91 338 +1 513
2017/08/25 89 825 +349
2017/08/24 89 476 +629
2017/08/23 88 847 -1 301
2017/08/22 90 148

WIDGET FOR YOUR SITE

DOMAINS WITH THE NEAREST RANK

Domain Rank
joinbangladeshairforce.mil.bd 93 308
tvlinks.pl 93 309
appcast.io 93 310
unist.hr 93 311
randomlisten.space 93 312
savonsanomat.fi 93 313
tccb.gov.tr 93 314
jsi.com 93 315
jobs.de 93 316
sparkasse-saarbruecken.de 93 317
pornobaron.tv 93 318

DOMAINS WITH THE NEAREST RANK BY TLD .fi

Domain Rank
netposti.fi 90 219
tripadvisor.fi 90 546
voice.fi 90 751
lily.fi 92 159
hut.fi 92 966
savonsanomat.fi 93 313
oamk.fi 93 704
asiakastieto.fi 94 477
edu.fi 95 775
tekniikkatalous.fi 95 797
vantaa.fi 95 927